TimeMST,TemperatureF,Dew PointF,Humidity,Sea Level PressureIn,VisibilityMPH,Wind Direction,Wind SpeedMPH,Gust SpeedMPH,PrecipitationIn,Events,Conditions,WindDirDegrees,DateUTC
12:56 AM,37.9,24.1,57,30.04,10.0,WNW,8.1,-,N/A,,Partly Cloudy,290,2012-11-11 07:56:00
1:56 AM,39.0,25.0,57,30.05,10.0,West,6.9,-,N/A,,Partly Cloudy,280,2012-11-11 08:56:00
2:56 AM,36.0,24.1,62,30.07,10.0,West,6.9,-,N/A,,Partly Cloudy,270,2012-11-11 09:56:00
3:56 AM,36.0,23.0,59,30.08,10.0,West,8.1,-,N/A,,Scattered Clouds,260,2012-11-11 10:56:00
4:56 AM,35.1,23.0,61,30.12,10.0,WSW,6.9,-,N/A,,Clear,250,2012-11-11 11:56:00
5:56 AM,35.1,21.0,57,30.14,10.0,SW,6.9,-,N/A,,Clear,230,2012-11-11 12:56:00
6:56 AM,34.0,21.0,59,30.17,10.0,SW,8.1,-,N/A,,Clear,230,2012-11-11 13:56:00
7:56 AM,39.9,18.0,41,30.17,10.0,Calm,Calm,-,N/A,,Clear,0,2012-11-11 14:56:00
8:56 AM,39.9,18.0,41,30.21,10.0,NW,4.6,-,N/A,,Clear,320,2012-11-11 15:56:00
9:56 AM,43.0,16.0,34,30.22,10.0,Variable,3.5,-,N/A,,Clear,0,2012-11-11 16:56:00
10:56 AM,45.0,10.9,25,30.22,10.0,NE,4.6,-,N/A,,Clear,40,2012-11-11 17:56:00
11:56 AM,48.0,9.0,21,30.20,10.0,North,3.5,-,N/A,,Clear,10,2012-11-11 18:56:00
12:56 PM,48.9,5.0,17,30.18,10.0,North,-9999.0,-,N/A,,Clear,0,2012-11-11 19:56:00
1:56 PM,51.1,8.1,18,30.17,10.0,Variable,5.8,-,N/A,,Clear,0,2012-11-11 20:56:00
2:56 PM,52.0,8.1,17,30.17,10.0,NNW,10.4,16.1,N/A,,Clear,330,2012-11-11 21:56:00
3:56 PM,51.1,7.0,17,30.18,10.0,Calm,Calm,-,N/A,,Clear,0,2012-11-11 22:56:00
4:56 PM,48.9,7.0,18,30.20,10.0,NNE,8.1,-,N/A,,Clear,30,2012-11-11 23:56:00
5:56 PM,45.0,6.1,20,30.23,10.0,NE,4.6,-,N/A,,Clear,40,2012-11-12 00:56:00
6:56 PM,44.1,8.1,23,30.27,10.0,Calm,Calm,-,N/A,,Clear,0,2012-11-12 01:56:00
7:56 PM,43.0,6.1,22,30.27,10.0,Calm,Calm,-,N/A,,Clear,0,2012-11-12 02:56:00
8:56 PM,42.1,8.1,25,30.29,10.0,Calm,Calm,-,N/A,,Clear,0,2012-11-12 03:56:00
9:56 PM,39.9,10.0,29,30.30,10.0,Calm,Calm,-,N/A,,Clear,0,2012-11-12 04:56:00
10:56 PM,37.9,12.0,35,30.30,10.0,Calm,Calm,-,N/A,,Clear,0,2012-11-12 05:56:00
11:56 PM,36.0,12.9,39,30.29,10.0,Calm,Calm,-,N/A,,Clear,0,2012-11-12 06:56:00